Time,TemperatureF,DewpointF,PressureIn,WindDirection,WindDirectionDegrees,WindSpeedMPH,WindSpeedGustMPH,Humidity,HourlyPrecipIn,Conditions,Clouds,dailyrainin,SoftwareType,DateUTC
2013-02-14 00:00:00,34.1,31.2,29.86,WNW,285,5.0,5.0,89,0.00,,,0.00,Wunderground v.1.15,2013-02-14 05:00:00,
2013-02-14 00:05:00,34.1,30.9,29.86,NW,307,5.0,5.0,88,0.00,,,0.00,Wunderground v.1.15,2013-02-14 05:05:00,
2013-02-14 00:10:00,34.1,30.9,29.86,West,279,5.0,5.0,88,0.00,,,0.00,Wunderground v.1.15,2013-02-14 05:10:00,
2013-02-14 00:15:00,34.2,31.3,29.86,NW,304,5.0,5.0,89,0.00,,,0.00,Wunderground v.1.15,2013-02-14 05:15:00,
2013-02-14 00:20:00,34.2,31.0,29.86,NW,305,5.0,5.0,88,0.00,,,0.00,Wunderground v.1.15,2013-02-14 05:20:00,
2013-02-14 00:25:00,34.1,30.9,29.86,WNW,287,5.0,5.0,88,0.00,,,0.00,Wunderground v.1.15,2013-02-14 05:25:00,
2013-02-14 00:30:00,34.2,31.3,29.86,WNW,291,5.0,5.0,89,0.00,,,0.00,Wunderground v.1.15,2013-02-14 05:30:00,
2013-02-14 00:35:00,34.2,31.0,29.86,WNW,293,5.0,6.0,88,0.00,,,0.00,Wunderground v.1.15,2013-02-14 05:35:00,
2013-02-14 00:40:00,34.3,31.4,29.86,WNW,291,5.0,6.0,89,0.00,,,0.00,Wunderground v.1.15,2013-02-14 05:40:00,
2013-02-14 00:45:00,34.4,31.5,29.86,WNW,291,5.0,6.0,89,0.00,,,0.00,Wunderground v.1.15,2013-02-14 05:45:00,
2013-02-14 00:50:00,34.5,31.6,29.86,West,267,5.0,6.0,89,0.00,,,0.00,Wunderground v.1.15,2013-02-14 05:50:00,
2013-02-14 00:55:00,34.4,31.2,29.86,West,266,5.0,6.0,88,0.00,,,0.00,Wunderground v.1.15,2013-02-14 05:55:00,
2013-02-14 01:00:00,34.4,31.5,29.86,WNW,297,4.0,6.0,89,0.00,,,0.00,Wunderground v.1.15,2013-02-14 06:00:00,
2013-02-14 01:05:00,34.5,31.3,29.86,WNW,290,5.0,6.0,88,0.00,,,0.00,Wunderground v.1.15,2013-02-14 06:05:00,
2013-02-14 01:15:00,34.5,31.3,29.86,WNW,287,5.0,6.0,88,0.00,,,0.00,Wunderground v.1.15,2013-02-14 06:15:00,
2013-02-14 01:20:00,34.5,31.3,29.86,WNW,297,5.0,5.0,88,0.00,,,0.00,Wunderground v.1.15,2013-02-14 06:20:00,
2013-02-14 01:25:00,34.5,31.3,29.86,WNW,301,5.0,6.0,88,0.00,,,0.00,Wunderground v.1.15,2013-02-14 06:25:00,
2013-02-14 01:30:00,34.5,31.3,29.85,WNW,284,5.0,5.0,88,0.00,,,0.00,Wunderground v.1.15,2013-02-14 06:30:00,
2013-02-14 01:35:00,34.4,31.5,29.86,WNW,282,4.0,6.0,89,0.00,,,0.00,Wunderground v.1.15,2013-02-14 06:35:00,
2013-02-14 01:40:00,34.4,31.5,29.85,West,274,4.0,6.0,89,0.00,,,0.00,Wunderground v.1.15,2013-02-14 06:40:00,
2013-02-14 01:45:00,34.3,31.4,29.85,West,274,5.0,6.0,89,0.00,,,0.00,Wunderground v.1.15,2013-02-14 06:45:00,
2013-02-14 01:50:00,34.2,31.3,29.85,WNW,282,5.0,5.0,89,0.00,,,0.00,Wunderground v.1.15,2013-02-14 06:50:00,
2013-02-14 01:55:00,34.2,31.3,29.85,West,276,5.0,6.0,89,0.00,,,0.00,Wunderground v.1.15,2013-02-14 06:55:00,
2013-02-14 02:00:00,34.2,31.3,29.85,West,278,5.0,6.0,89,0.00,,,0.00,Wunderground v.1.15,2013-02-14 07:00:00,
2013-02-14 02:10:00,34.1,30.9,29.85,West,263,6.0,6.0,88,0.00,,,0.00,Wunderground v.1.15,2013-02-14 07:10:00,
2013-02-14 02:20:00,33.9,31.0,29.85,West,281,4.0,6.0,89,0.00,,,0.00,Wunderground v.1.15,2013-02-14 07:20:00,
2013-02-14 02:25:00,33.9,31.0,29.86,WNW,299,5.0,6.0,89,0.00,,,0.00,Wunderground v.1.15,2013-02-14 07:25:00,
2013-02-14 02:30:00,33.8,30.9,29.86,WNW,291,5.0,6.0,89,0.00,,,0.00,Wunderground v.1.15,2013-02-14 07:30:00,
2013-02-14 02:35:00,33.9,31.3,29.85,West,280,5.0,6.0,90,0.00,,,0.00,Wunderground v.1.15,2013-02-14 07:35:00,
2013-02-14 02:40:00,34.0,31.1,29.85,NW,326,5.0,6.0,89,0.00,,,0.00,Wunderground v.1.15,2013-02-14 07:40:00,
2013-02-14 02:45:00,34.0,31.1,29.85,WNW,288,6.0,6.0,89,0.00,,,0.00,Wunderground v.1.15,2013-02-14 07:45:00,
2013-02-14 02:50:00,34.1,31.2,29.85,West,276,6.0,6.0,89,0.00,,,0.00,Wunderground v.1.15,2013-02-14 07:50:00,
2013-02-14 02:55:00,34.0,31.1,29.85,WNW,284,6.0,6.0,89,0.00,,,0.00,Wunderground v.1.15,2013-02-14 07:55:00,
2013-02-14 03:00:00,34.0,31.1,29.86,NW,307,6.0,7.0,89,0.00,,,0.00,Wunderground v.1.15,2013-02-14 08:00:00,
2013-02-14 03:10:00,34.0,31.1,29.86,WNW,302,7.0,10.0,89,0.00,,,0.00,Wunderground v.1.15,2013-02-14 08:10:00,
2013-02-14 03:20:00,34.0,31.1,29.86,WNW,293,7.0,8.0,89,0.00,,,0.00,Wunderground v.1.15,2013-02-14 08:20:00,